Location: ???????
(55.3754°N, 39.3545°E)
Time: 01:04:53
(UTC+00:00)

USA 229 DEB - Pass Details

Date: 14 April 2026
Orbit: 844 x 1364 km, 63.4° (Epoch: 10 January)

Event Time Altitude Azimuth Distance (km) Brightness Sun altitude
Rises 23:41:59 0° 311° (NW) 3,960 6.7 -18.7°
Reaches altitude 10° 23:44:43 10° 304° (NW) 3,073 6.1 -18.5°
Maximum altitude 23:51:33 41° 238° (WSW) 1,747 4.3 -17.9°
Drops below altitude 10° 23:59:01 10° 172° (S) 3,355 5.9 -17.2°
Sets 00:02:08 0° 166° (SSE) 4,359 6.6 -16.9°
